Weather in Pointe Noire

Congo     4°48′54″S   11°56′39″E
temp.,
°C
wind,
m/s
gust,
m/s
humid.,
%
clouds,
%
prec.,
mm/h
press.,
hPa
HPBL,
m
29 november, mon
mon2901:00+24se019592 0.0 101020
04:00+23se0097100 0.0 101013
07:00+25ese019183 0.2 1012121
10:00+28sse237595 0.9 1012687
13:00+30ssw436299 1.3 10091093
16:00+29sw437181 3.6 1008704
19:00+26sw3687100 4.5 1009358
22:00+25s2391100 1.4 1012131
30 november, tue
tue3001:00+25se1293100 1.4 101190
04:00+24sse2595100 0.2 1010324
07:00+24e1293100 0.2 1012194
10:00+24ene3693100 3.3 1013270
13:00+24sse3592100 11.0 1012381
16:00+23ssw1393100 0.3 1009256
19:00+23ene1294100 0.3 101090
22:00+22ne229694 0.0 101148
1 december, wed
wed101:00+22n119555 0.0 101017
04:00+22s019699 0.0 101112
07:00+23e1191100 0.0 101384
10:00+25ne238096 0.0 1014420
13:00+24ese1283100 0.0 1011167
16:00+27s337095 0.0 1009485
19:00+24ese1179100 0.0 101015
22:00+23ne118591 0.0 101215
2 december, thu
thu201:00+23ene118997 0.0 101112
04:00+22ne1190100 0.0 101013
07:00+24ene128573 0.0 1011114
10:00+29se226198 0.0 1012927
13:00+33ssw224917 0.0 10081584
16:00+28sw556783 0.0 1007504
19:00+26ssw378276 0.0 1008382
22:00+25s118763 0.0 101041
3 december, fri
fri301:00+24se119198 0.0 100915
04:00+24e119399 0.2 100917
07:00+25ese128681 0.2 1011153
10:00+30sse2259100 0.0 10111040
13:00+33sw335174 0.0 10081607
16:00+29sw5567100 0.1 1007619
19:00+26ssw2586100 0.2 1009363
22:00+25ssw2390100 0.5 1011133